TimePST,TemperatureF,Dew PointF,Humidity,Sea Level PressureIn,VisibilityMPH,Wind Direction,Wind SpeedMPH,Gust SpeedMPH,PrecipitationIn,Events,Conditions,WindDirDegrees,DateUTC
12:53 AM,50.0,48.0,93,30.26,10.0,Calm,Calm,-,0.00,,Overcast,0,2013-11-06 08:53:00
1:53 AM,48.9,48.0,97,30.27,9.0,Calm,Calm,-,N/A,,Overcast,0,2013-11-06 09:53:00
2:53 AM,50.0,48.0,93,30.27,9.0,Calm,Calm,-,N/A,,Overcast,0,2013-11-06 10:53:00
3:53 AM,48.9,48.0,97,30.26,8.0,Calm,Calm,-,N/A,,Overcast,0,2013-11-06 11:53:00
4:53 AM,50.0,46.9,89,30.27,10.0,Calm,Calm,-,0.01,Rain,Light Rain,0,2013-11-06 12:53:00
5:53 AM,48.9,46.9,93,30.27,9.0,Calm,Calm,-,0.00,,Overcast,0,2013-11-06 13:53:00
6:53 AM,48.9,46.9,93,30.28,9.0,Calm,Calm,-,N/A,,Overcast,0,2013-11-06 14:53:00
7:53 AM,50.0,46.9,89,30.29,10.0,Calm,Calm,-,N/A,,Overcast,0,2013-11-06 15:53:00
8:43 AM,50.0,46.9,89,30.30,10.0,Calm,Calm,-,N/A,,Overcast,0,2013-11-06 16:43:00
8:53 AM,50.0,46.9,89,30.30,10.0,Calm,Calm,-,N/A,,Overcast,0,2013-11-06 16:53:00
9:15 AM,50.0,48.0,93,30.31,10.0,West,5.8,-,N/A,,Overcast,260,2013-11-06 17:15:00
9:43 AM,50.0,48.0,93,30.30,8.0,Calm,Calm,-,0.00,Rain,Light Rain,0,2013-11-06 17:43:00
9:53 AM,50.0,48.0,93,30.30,10.0,Calm,Calm,-,0.00,Rain,Light Rain,0,2013-11-06 17:53:00
10:05 AM,51.1,48.0,89,30.30,9.0,Calm,Calm,-,0.00,Rain,Light Rain,0,2013-11-06 18:05:00
10:53 AM,51.1,48.0,89,30.30,10.0,Calm,Calm,-,0.01,,Overcast,0,2013-11-06 18:53:00
11:04 AM,51.1,48.0,89,30.30,9.0,Calm,Calm,-,N/A,,Overcast,0,2013-11-06 19:04:00
11:29 AM,51.1,48.0,89,30.30,9.0,Calm,Calm,-,0.01,,Overcast,0,2013-11-06 19:29:00
11:49 AM,51.8,48.2,88,30.28,8.0,Calm,Calm,-,0.01,,Overcast,0,2013-11-06 19:49:00
11:53 AM,52.0,48.0,86,30.28,8.0,Calm,Calm,-,0.01,,Overcast,0,2013-11-06 19:53:00
12:29 PM,53.1,48.9,86,30.27,8.0,Calm,Calm,-,N/A,,Overcast,0,2013-11-06 20:29:00
12:53 PM,53.1,50.0,89,30.26,9.0,ESE,6.9,-,0.00,Rain,Light Rain,120,2013-11-06 20:53:00
1:11 PM,53.1,50.0,89,30.26,10.0,SE,5.8,-,0.00,Rain,Light Rain,130,2013-11-06 21:11:00
1:45 PM,53.1,50.0,89,30.25,9.0,East,5.8,-,0.01,Rain,Light Rain,100,2013-11-06 21:45:00
1:53 PM,53.1,51.1,93,30.25,7.0,East,4.6,-,0.01,Rain,Light Rain,100,2013-11-06 21:53:00
2:24 PM,53.1,51.1,93,30.24,6.0,ESE,3.5,-,0.00,Rain,Light Rain,120,2013-11-06 22:24:00
2:38 PM,53.1,51.1,93,30.23,8.0,SE,4.6,-,0.01,Rain,Light Rain,130,2013-11-06 22:38:00
2:53 PM,53.1,51.1,93,30.23,6.0,ESE,4.6,-,0.01,Rain,Light Rain,120,2013-11-06 22:53:00
3:01 PM,53.1,51.1,93,30.23,5.0,SE,4.6,-,0.00,Rain,Light Rain,130,2013-11-06 23:01:00
3:18 PM,52.0,51.1,97,30.23,5.0,SE,4.6,-,0.00,Rain,Light Rain,130,2013-11-06 23:18:00
3:33 PM,52.0,51.1,97,30.22,4.0,ESE,3.5,-,0.01,Rain,Light Rain,120,2013-11-06 23:33:00
3:49 PM,51.8,51.8,100,30.22,6.0,ESE,3.5,-,0.02,Rain,Light Rain,120,2013-11-06 23:49:00
3:53 PM,52.0,51.1,97,30.22,6.0,ESE,3.5,-,0.02,Rain,Light Rain,120,2013-11-06 23:53:00
4:53 PM,52.0,50.0,93,30.20,9.0,Calm,Calm,-,0.05,Rain,Light Rain,0,2013-11-07 00:53:00
5:53 PM,52.0,50.0,93,30.18,7.0,ESE,4.6,-,0.03,Rain,Light Rain,120,2013-11-07 01:53:00
6:53 PM,51.1,48.9,92,30.17,9.0,SE,3.5,-,0.03,Rain,Light Rain,130,2013-11-07 02:53:00
7:53 PM,51.1,48.9,92,30.16,9.0,SE,4.6,-,0.01,Rain,Light Rain,140,2013-11-07 03:53:00
8:53 PM,51.1,48.9,92,30.16,8.0,SE,4.6,-,0.03,Rain,Light Rain,140,2013-11-07 04:53:00
9:41 PM,51.1,48.9,92,30.15,7.0,SE,4.6,-,0.05,Rain,Light Rain,140,2013-11-07 05:41:00
9:53 PM,51.1,48.0,89,30.15,7.0,SE,6.9,-,0.06,Rain,Light Rain,130,2013-11-07 05:53:00
10:00 PM,50.0,48.0,93,30.14,6.0,SE,5.8,-,0.01,Rain,Light Rain,130,2013-11-07 06:00:00
10:33 PM,50.0,48.0,93,30.13,10.0,SSE,6.9,-,0.03,Rain,Light Rain,150,2013-11-07 06:33:00
10:40 PM,50.0,48.0,93,30.13,10.0,SSE,4.6,-,0.03,,Overcast,160,2013-11-07 06:40:00
10:53 PM,50.0,48.0,93,30.12,10.0,SE,6.9,-,0.03,Rain,Light Rain,140,2013-11-07 06:53:00
11:53 PM,50.0,46.9,89,30.10,10.0,SE,5.8,-,0.01,,Overcast,130,2013-11-07 07:53:00